Regional Weather Roundup
Issued by NWS Midland/Odessa, TX

Skip options and go directly to product.
Home | Oldest Version | Previous Version | Current Version | All | Text Only | Save Text | Print | Product List | Glossary On

Skip product version selection by date and time.   
088
ASUS44 KMAF 280201
RWRMAF
MIDLAND AREA WEATHER ROUNDUP
NATIONAL WEATHER SERVICE MIDLAND TX
800 PM CST FRI FEB 27 2015

...IN SOUTHWEST TEXAS AND SOUTHEAST NEW MEXICO...

CITY           SKY/WX    TMP DP  RH WIND       PRES   REMARKS
ALPINE         CLOUDY    26  25  96 NE6       30.11S WCI  19
ANDREWS        CLOUDY    18  17  95 E13       30.19S WCI   4
ARTESIA        CLOUDY    25  21  86 SE13      30.13F WCI  13
BIG SPRING     CLOUDY    19  15  86 NE10      30.28R WCI   7
CARLSBAD       CLOUDY    25  18  74 SE9       30.13S WCI  15
DRYDEN           N/A     35  29  78 E14       30.17S WCI  26
FORT STOCKTON  CLOUDY    26  26 100 E10       30.14S FOG     WCI  16
GUAD PASS      CLOUDY    18  15  88 NE17      29.93S FOG     WCI   3
HOBBS          CLOUDY    18  18 100 E9        30.16R WCI   6
MARFA          CLOUDY    25  25 100 NE15      30.02R WCI  12
MIDLAND AIRPK  CLOUDY    20  19  92 E12       30.21F FOG     WCI   9
MIDLAND INTL   LGT SNOW  20  18  92 E13       30.20S WCI   7
ODESSA         CLOUDY    19  17  92 E14       30.20R FOG     WCI   6
PECOS          CLOUDY    25  24  93 E9        30.19R WCI  16
PRESIDIO       FAIR      38  28  67 NE20G25   29.99R WCI  28
SEMINOLE       RAIN      19  17  93 E12       30.20R WCI   6
SNYDER         CLOUDY    16  13  86 E9        30.29R WCI   5
WINK           CLOUDY    24  17  74 E12       30.18R WCI  13
$$
...OTHER STATIONS IN TEXAS...

CITY           SKY/WX    TMP DP  RH WIND       PRES   REMARKS
ABILENE        CLOUDY    20  18  92 E7        30.34S FOG     WCI  11
AMARILLO       FLURRIES  13   9  84 SE14      30.20S WCI  -2
AUSTIN         FRZ DRZL  32  29  88 N16       30.35R WCI  21
BROWNSVILLE    CLOUDY    62  57  83 NE6       30.15R
CORPUS CHRISTI CLOUDY    49  45  86 NE18G24   30.21R
DALLAS FTW     LGT SNOW  26  21  81 NE13      30.44R WCI  15
DEL RIO        CLOUDY    38  36  92 E6        30.27R WCI  33
EL PASO        PTCLDY    38  22  52 NE8       29.90R WCI  32
HOUSTON INT    CLOUDY    45  32  60 NE12      30.31S WCI  39
LUBBOCK        FLURRIES  14  11  87 E10       30.22R WCI   1
SAN ANGELO     CLOUDY    24  22  91 E12       30.29S WCI  13
SAN ANTONIO    CLOUDY    33  30  88 N13G21    30.31R FOG     WCI  24
WACO           FRZ RAIN  29  27  92 NE10      30.40S WCI  20
WICHITA FALLS  NOT AVBL
$$
...OTHER LOCATIONS IN NEW MEXICO...

CITY           SKY/WX    TMP DP  RH WIND       PRES   REMARKS
ALAMAGORDO     PTCLDY    34  23  64 MISG      29.92R
ALBUQUERQUE    LGT SNOW  24  22  91 N9        29.89S FOG     WCI  14
CANNON AFB     NOT AVBL
CLOVIS         CLOUDY    12   9  85 SE12      30.12S WCI  -2
HOLLOMAN AFB   PTCLDY    36  22  57 S7        29.91R WCI  30
ROSWELL        CLOUDY    22  17  81 E10       30.11S WCI  11
RUIDOSO        FOG       14  12  92 MISG      29.93R VSB<1/4
SANTA FE       LGT SNOW  17  13  84 SE14      29.88S VSB 1   WCI   3
TRUTH OR CONSE PTCLDY    41  26  55 SE9       29.83R WCI  35
TUCUMCARI      CLOUDY    16  10  77 S9        30.11R WCI   4
$$

USA.gov is the U.S. government's official web portal to all federal, state and local government web resources and services.